Location: Unspecified
(50.7693°N, 0.0000°E)
Time: 18:26:20
(UTC+00:00)

Vanguard 2 - Pass Details

Date: 26 June 2019
Orbit: 553 x 2938 km, 32.9° (Epoch: 19 July)

Event Time Altitude Azimuth Distance (km) Brightness Sun altitude
Rises 11:10:14 0° 246° (WSW) 3,664 11.0 60.8°
Reaches altitude 10° 11:13:49 10° 224° (SW) 3,083 10.9 61.0°
Maximum altitude 11:18:02 15° 191° (S) 3,112 11.3 61.2°
Drops below altitude 10° 11:23:18 10° 160° (SSE) 4,054 11.8 61.5°
Sets 11:29:21 0° 142° (SE) 5,603 12.3 61.8°
